SCP
0 0 0 0 -0 0 0 -0 -0 0 0 0 -0 -0 -0 -0 -0 -0 -0 -0 -0 -0 -0 -0 -0 -1 -2 -1 -1 -1 -1 -0
0 0 0 0 -0 0 0 0 0 0 -0 0 0 -0 -0 -0 -0 -0 -0 -0 -0 -0 -0 -0 -0 -1 -1 -2 -2 -1 -1 -1
0 0 0 0 0 0 0 0 0 -0 -0 0 0 0 -0 -0 -0 0 0 -0 -0 -0 -0 -0 -0 -0 -1 -1 -1 -1 -1 -1
0 0 0 0 0 0 0 0 0 0 0 -0 -0 -0 -0 -0 -0 0 -0 -0 -0 -0 -0 -0 -0 -0 -1 -1 -1 -1 -1 -1
0 0 0 0 0 0 0 0 0 0 0 0 0 0 -0 -0 0 0 -0 0 -0 -0 -0 -0 -0 -0 -1 -1 -1 -0 -0 -0
0 0 0 0 0 0 0 0 0 0 0 0 0 0 0 0 0 0 0 0 0 -0 -0 -0 0 -0 -0 -0 -0 0 0 0
0 0 0 -0 0 0 0 0 0 0 0 0 -0 0 -0 0 0 0 0 0 0 0 -0 0 0 0 1 0 1 1 1 1
0 0 0 0 0 0 -0 0 0 0 0 -0 0 0 0 0 0 0 0 0 0 0 0 0 1 0 1 1 1 1 1 1
0 0 0 0 0 0 -0 0 0 0 0 0 0 0 0 0 0 0 0 0 0 0 1 1 2 1 1 1 1 2 1 1
0 0 0 0 0 0 0 0 0 0 0 0 0 0 0 0 0 0 0 0 0 1 1 2 2 1 2 4 3 3 2 2
0 0 0 0 0 0 0 -0 0 0 0 0 0 -0 0 0 0 0 0 0 0 0 2 3 1 2 5 5 3 2 3 3
0 0 0 0 0 0 0 0 -0 0 0 0 0 0 0 0 0 0 0 0 0 2 4 3 6 7 6 6 3 4 5 6
0 0 -0 -0 0 0 0 0 0 0 0 0 0 0 0 0 0 0 0 1 3 4 6 7 9 6 7 7 7 5 3 3
0 0 -0 0 0 0 0 0 0 0 0 0 0 0 0 1 0 0 1 3 7 7 8 8 8 6 8 7 5 5 4 3
0 0 0 0 0 -0 -0 -0 -0 -0 0 0 1 5 5 3 2 2 4 6 6 8 11 3 1 3 4 3 1 1 0 1
-0 -0 -0 -0 0 -0 -0 -0 -0 0 0 4 6 7 4 2 4 7 6 4 4 3 0 0 0 0 0 0 0 0 0 0
-0 -0 -0 -0 -0 -0 -0 -0 0 1 3 7 8 6 2 3 3 3 3 3 1 0 0 0 0 0 0 0 0 0 0 0
-0 -0 -0 -0 -0 -0 -0 -0 0 1 10 10 6 2 1 1 1 1 1 2 2 1 0 0 0 0 0 0 0 0 -0 -0
0 0 -0 0 -0 -0 -0 0 1 1 10 5 5 3 2 1 1 1 2 1 0 0 0 0 0 0 0 0 0 -0 -0 -0
Wind_Speed_500mb
12 20 18 24 10 17 10 3 5 10 21 14 12 39 51 61 63 70 86 96 109 108 102 97 95 90 84 83 76 68 59 52
30 7 11 15 10 5 5 3 8 12 12 12 12 25 32 37 58 69 91 99 105 102 103 101 97 89 85 80 75 68 61 58
6 10 18 10 6 1 7 11 11 8 12 12 14 19 35 42 72 77 88 94 95 98 103 100 101 98 90 86 85 75 65 58
19 21 13 15 18 15 14 16 9 10 20 13 19 32 45 57 68 82 87 88 92 97 101 102 103 100 99 87 85 77 63 59
23 16 10 2 10 15 7 7 15 11 14 8 9 13 47 56 76 79 81 73 80 83 97 99 99 99 103 93 81 79 70 63
12 17 9 15 15 8 7 7 18 19 21 18 16 8 14 51 82 94 84 74 72 80 82 99 99 96 98 94 86 82 74 66
16 18 10 12 20 18 8 11 10 22 23 19 20 18 42 70 76 79 82 84 82 81 78 83 92 96 91 89 85 86 77 68
12 10 17 25 28 25 11 9 13 14 27 16 22 18 25 25 45 73 91 93 87 83 77 76 83 92 88 85 83 86 79 67
12 13 13 17 13 7 14 12 11 11 21 33 15 21 33 48 59 60 87 97 97 92 86 82 84 84 82 77 79 82 75 61
9 10 4 18 10 18 22 34 27 14 19 28 34 57 61 72 80 92 94 102 99 92 85 82 79 80 77 73 78 74 64 62
6 8 17 32 13 3 16 49 34 17 22 31 66 30 34 62 75 75 110 113 108 93 89 90 77 75 74 80 77 67 61 62
5 4 16 7 9 18 22 29 16 16 22 22 39 1 13 46 76 72 104 107 98 98 98 89 78 74 71 57 44 38 40 43
8 12 19 7 26 48 1 19 58 70 73 53 14 36 28 34 71 90 102 84 93 84 72 71 70 66 57 55 49 41 31 26
7 14 32 45 31 4 25 97 82 100 99 77 49 25 46 47 70 79 82 84 73 69 62 63 64 69 73 60 55 54 51 36
10 11 31 52 37 47 64 56 76 99 87 52 36 57 55 51 47 57 61 69 73 80 82 77 78 80 77 70 61 59 39 31
10 9 21 56 89 48 79 86 116 120 47 37 60 68 67 64 63 72 81 83 88 89 92 96 89 80 73 60 50 36 26 30
17 37 47 46 31 76 110 114 108 71 47 61 68 64 75 77 79 86 97 103 106 108 104 90 71 51 43 33 23 35 34 50
23 45 22 55 63 90 93 100 97 47 56 49 76 80 81 87 86 95 105 109 99 82 67 51 31 19 14 14 19 14 36 60
57 60 53 88 63 70 56 52 90 40 75 85 76 91 95 105 105 101 92 81 68 61 58 50 45 48 46 43 40 50 50 39
Wind_Direction_500mb
215 238 145 279 243 192 139 149 40 271 299 300 207 194 198 201 201 198 203 206 211 213 213 211 217 221 223 225 223 223 221 219
255 160 250 160 218 246 354 195 250 287 280 246 164 193 196 197 199 199 206 209 212 210 212 214 217 220 224 226 225 223 221 222
336 178 222 295 283 158 134 143 183 261 264 221 238 186 196 198 201 201 204 207 210 210 214 215 217 218 220 227 224 225 223 224
252 272 214 180 215 209 215 264 235 179 263 237 243 217 186 190 196 206 208 211 212 214 214 214 216 219 218 223 225 223 224 222
341 350 24 308 239 201 194 95 202 194 259 300 344 193 192 178 193 200 189 186 199 204 211 213 215 218 219 220 223 223 221 221
209 234 259 297 298 253 182 129 230 218 247 281 292 240 226 184 188 181 179 181 186 192 204 212 214 215 216 217 219 221 220 219
273 257 279 272 295 302 207 211 176 269 209 234 220 211 234 197 192 185 184 185 187 192 197 203 210 212 216 216 217 218 218 214
290 321 331 310 298 291 240 269 273 256 258 196 211 180 188 242 200 189 193 193 195 198 199 201 206 208 209 213 212 213 211 213
274 351 329 316 263 347 298 263 222 286 287 294 251 207 199 171 185 206 203 193 194 198 198 196 200 204 207 210 210 207 205 206
275 3 259 242 316 299 279 273 271 266 272 280 268 238 230 197 183 206 203 196 196 197 197 198 201 205 206 205 201 202 199 203
210 205 281 291 268 297 19 312 298 240 270 274 292 289 237 232 216 215 207 204 201 204 209 202 202 206 199 192 192 194 192 194
160 197 249 303 285 329 342 300 258 264 259 273 290 186 246 220 215 206 209 211 201 206 206 198 190 186 183 178 176 162 162 177
210 233 265 228 311 307 231 260 333 315 299 276 225 246 263 213 207 201 200 202 206 205 193 183 181 181 161 151 144 143 146 160
183 219 262 15 357 0 321 314 315 310 297 274 244 241 168 181 198 200 200 192 192 181 169 171 166 162 152 141 140 143 140 130
212 244 312 322 309 313 315 322 324 330 291 240 206 146 149 151 165 174 173 164 165 164 157 156 152 165 149 141 150 153 158 184
338 286 292 312 304 331 328 327 325 308 261 182 132 147 145 145 142 152 157 159 157 157 148 140 148 151 148 145 143 172 214 259
257 286 295 292 300 326 320 318 316 308 165 153 144 129 137 133 138 145 150 150 154 149 139 132 134 134 143 167 212 264 243 191
268 280 277 287 304 318 315 315 313 289 151 133 145 137 136 133 135 141 140 137 132 130 132 136 143 147 191 143 114 145 157 179
256 269 283 286 307 331 326 322 330 326 147 133 123 127 122 124 125 125 124 129 130 127 129 133 135 139 142 140 144 156 168 182
Wind_Speed_850mb
12 20 18 24 10 17 10 3 5 10 21 14 12 39 51 61 63 70 86 96 109 108 102 97 95 90 84 83 76 68 59 52
30 7 11 15 10 5 5 3 8 12 12 12 12 25 32 37 58 69 91 99 105 102 103 101 97 89 85 80 75 68 61 58
6 10 18 10 6 1 7 11 11 8 12 12 14 19 35 42 72 77 88 94 95 98 103 100 101 98 90 86 85 75 65 58
19 21 13 15 18 15 14 16 9 10 20 13 19 32 45 57 68 82 87 88 92 97 101 102 103 100 99 87 85 77 63 59
23 16 10 2 10 15 7 7 15 11 14 8 9 13 47 56 76 79 81 73 80 83 97 99 99 99 103 93 81 79 70 63
12 17 9 15 15 8 7 7 18 19 21 18 16 8 14 51 82 94 84 74 72 80 82 99 99 96 98 94 86 82 74 66
16 18 10 12 20 18 8 11 10 22 23 19 20 18 42 70 76 79 82 84 82 81 78 83 92 96 91 89 85 86 77 68
12 10 17 25 28 25 11 9 13 14 27 16 22 18 25 25 45 73 91 93 87 83 77 76 83 92 88 85 83 86 79 67
12 13 13 17 13 7 14 12 11 11 21 33 15 21 33 48 59 60 87 97 97 92 86 82 84 84 82 77 79 82 75 61
9 10 4 18 10 18 22 34 27 14 19 28 34 57 61 72 80 92 94 102 99 92 85 82 79 80 77 73 78 74 64 62
6 8 17 32 13 3 16 49 34 17 22 31 66 30 34 62 75 75 110 113 108 93 89 90 77 75 74 80 77 67 61 62
5 4 16 7 9 18 22 29 16 16 22 22 39 1 13 46 76 72 104 107 98 98 98 89 78 74 71 57 44 38 40 43
8 12 19 7 26 48 1 19 58 70 73 53 14 36 28 34 71 90 102 84 93 84 72 71 70 66 57 55 49 41 31 26
7 14 32 45 31 4 25 97 82 100 99 77 49 25 46 47 70 79 82 84 73 69 62 63 64 69 73 60 55 54 51 36
10 11 31 52 37 47 64 56 76 99 87 52 36 57 55 51 47 57 61 69 73 80 82 77 78 80 77 70 61 59 39 31
10 9 21 56 89 48 79 86 116 120 47 37 60 68 67 64 63 72 81 83 88 89 92 96 89 80 73 60 50 36 26 30
17 37 47 46 31 76 110 114 108 71 47 61 68 64 75 77 79 86 97 103 106 108 104 90 71 51 43 33 23 35 34 50
23 45 22 55 63 90 93 100 97 47 56 49 76 80 81 87 86 95 105 109 99 82 67 51 31 19 14 14 19 14 36 60
57 60 53 88 63 70 56 52 90 40 75 85 76 91 95 105 105 101 92 81 68 61 58 50 45 48 46 43 40 50 50 39
Wind_Direction_850mb
215 238 145 279 243 192 139 149 40 271 299 300 207 194 198 201 201 198 203 206 211 213 213 211 217 221 223 225 223 223 221 219
255 160 250 160 218 246 354 195 250 287 280 246 164 193 196 197 199 199 206 209 212 210 212 214 217 220 224 226 225 223 221 222
336 178 222 295 283 158 134 143 183 261 264 221 238 186 196 198 201 201 204 207 210 210 214 215 217 218 220 227 224 225 223 224
252 272 214 180 215 209 215 264 235 179 263 237 243 217 186 190 196 206 208 211 212 214 214 214 216 219 218 223 225 223 224 222
341 350 24 308 239 201 194 95 202 194 259 300 344 193 192 178 193 200 189 186 199 204 211 213 215 218 219 220 223 223 221 221
209 234 259 297 298 253 182 129 230 218 247 281 292 240 226 184 188 181 179 181 186 192 204 212 214 215 216 217 219 221 220 219
273 257 279 272 295 302 207 211 176 269 209 234 220 211 234 197 192 185 184 185 187 192 197 203 210 212 216 216 217 218 218 214
290 321 331 310 298 291 240 269 273 256 258 196 211 180 188 242 200 189 193 193 195 198 199 201 206 208 209 213 212 213 211 213
274 351 329 316 263 347 298 263 222 286 287 294 251 207 199 171 185 206 203 193 194 198 198 196 200 204 207 210 210 207 205 206
275 3 259 242 316 299 279 273 271 266 272 280 268 238 230 197 183 206 203 196 196 197 197 198 201 205 206 205 201 202 199 203
210 205 281 291 268 297 19 312 298 240 270 274 292 289 237 232 216 215 207 204 201 204 209 202 202 206 199 192 192 194 192 194
160 197 249 303 285 329 342 300 258 264 259 273 290 186 246 220 215 206 209 211 201 206 206 198 190 186 183 178 176 162 162 177
210 233 265 228 311 307 231 260 333 315 299 276 225 246 263 213 207 201 200 202 206 205 193 183 181 181 161 151 144 143 146 160
183 219 262 15 357 0 321 314 315 310 297 274 244 241 168 181 198 200 200 192 192 181 169 171 166 162 152 141 140 143 140 130
212 244 312 322 309 313 315 322 324 330 291 240 206 146 149 151 165 174 173 164 165 164 157 156 152 165 149 141 150 153 158 184
338 286 292 312 304 331 328 327 325 308 261 182 132 147 145 145 142 152 157 159 157 157 148 140 148 151 148 145 143 172 214 259
257 286 295 292 300 326 320 318 316 308 165 153 144 129 137 133 138 145 150 150 154 149 139 132 134 134 143 167 212 264 243 191
268 280 277 287 304 318 315 315 313 289 151 133 145 137 136 133 135 141 140 137 132 130 132 136 143 147 191 143 114 145 157 179
256 269 283 286 307 331 326 322 330 326 147 133 123 127 122 124 125 125 124 129 130 127 129 133 135 139 142 140 144 156 168 182